Regional Weather Roundup
Issued by NWS

Home | Current Version | Previous Version | Text Only | Print | Product List | Glossary Off
Versions: 1 2 3 4 5 6 7 8 9 10 11 12 13 14 15 16 17 18 19 20 21 22 23 24 25 26 27 28 29 30 31 32 33 34 35 36 37 38 39 40 41 42 43 44 45 46 47 48 49 50

000
ASUS45 KSLC 220010
RWRUT

UTAH REGIONAL WEATHER ROUNDUP
NATIONAL WEATHER SERVICE SALT LAKE CITY UT
500 PM MST TUE FEB 21 2017

UTZ001>011-023>025-220100-

NORTHERN UTAH

CITY           SKY/WX    TMP DP  RH WIND       PRES   REMARKS
BRIGHAM CITY     N/A     46  37  69 N26G35    29.96R
HILL AFB       LGT RAIN  45  39  79 N17G28    29.93R
LOGAN          RAIN      41  35  79 N18       29.98R
OGDEN          LGT RAIN  44  39  82 N15G28    29.93R
SALT LAKE CITY CLOUDY    61  32  33 S22G32    29.87F
TOOELE VALLEY  PTSUNNY   63  32  31 S25G38    29.89S
WENDOVER       CLOUDY    39  30  70 NW21G41   29.99R WCI  29
HEBER CITY     CLOUDY    54  27  35 SW23G35   29.92F
WEST JORDAN    PTSUNNY   62  42  48 S29G40    29.91S

$$

UTZ011>015-024>027-220100-

CENTRAL/NORTHEAST UTAH

CITY           SKY/WX    TMP DP  RH WIND       PRES   REMARKS
PROVO AIRPORT  MOSUNNY   58  35  42 SW25      29.96F
MOAB/CANYONLAN CLOUDY    60  37  42 S21G28    30.04F
DELTA          SUNNY     57  30  35 SW31G47   30.01S
PRICE          PTSUNNY   48  41  76 SW3       30.03F
RICHFIELD      SUNNY     59  27  29 S25G33    30.04F
ROOSEVELT      CLOUDY    55  37  50 SW10      30.01F
VERNAL         CLOUDY    51  36  56 S13       29.99F

$$

UTZ013>016-019>022-027-220100-

SOUTHERN UTAH

CITY           SKY/WX    TMP DP  RH WIND       PRES   REMARKS
BRYCE CANYON   CLOUDY    41  31  67 SW14      30.23S
CEDAR CITY     CLOUDY    52  29  41 S24G41    30.09F
MILFORD        MOSUNNY   57  34  41 SW35G43   30.04F
ST GEORGE      PTCLDY    65  43  44 SW14      30.12F
HANKSVILLE     PTSUNNY   63  34  34 SW24G35   30.07F
KANAB          MOSUNNY   57  39  51 SW10G18   30.23F
BLANDING       PTSUNNY   56  36  48 SW5       30.27F

$$

REGIONAL REPORTS     COLORADO/ARIZONA

CITY           SKY/WX    TMP DP  RH WIND       PRES   REMARKS
CRAIG, CO      CLOUDY    53  30  41 SW23G33   30.00F
GRAND JUNCTION CLOUDY    57  40  52 CALM      30.09F
RIFLE, CO      CLOUDY    58  29  33 SW13      30.07F
MONTROSE, CO   CLOUDY    57  29  34 SW12G17   30.16S
CORTEZ, CO     CLOUDY    58  34  40 SW9       30.22F
COLORADO CITY    N/A     59  41  51 W9G17     30.22F
PAGE, AZ       CLOUDY    62  38  40 NW3       30.16F
GRAND CANYON   LGT RAIN  46  39  76 W13G28    30.31R
KINGMAN, AZ    CLOUDY    64  37  36 SW10      30.21F
FLAGSTAFF, AZ  CLOUDY    52  38  58 SW10      30.31S

$$

REGIONAL REPORTS    NEVADA/IDAHO/WYOMING

CITY           SKY/WX    TMP DP  RH WIND       PRES   REMARKS
LAS VEGAS, NV  PTSUNNY   69  34  27 S10G22    30.08F
ELY, NY        CLOUDY    50  29  44 S28G39    29.98S
ELKO, NV       CLOUDY    39  31  72 SW15      30.04R WCI  31
POCATELLO, ID  CLOUDY    41  32  70 SW16      29.96R
BURLEY, ID     CLOUDY    46  29  51 SW17G26   29.96R
FORT BRIDGER,  CLOUDY    45  28  52 SW24G40   29.93F
EVANSTON, WY   CLOUDY    41  27  57 SW22      29.87F
ROCK SPRINGS,  PTCLDY    48  27  44 SW30G41   29.87F
KEMMERER, WY     N/A     39  30  70 SW31G41   29.87F WCI  27

$$



USA.gov is the U.S. government's official web portal to all federal, state and local government web resources and services.